Regional Weather Roundup
Issued by NWS

Home | Current Version | Previous Version | Graphics & Text | Print | Product List | Glossary On
Versions: 1 2 3 4 5 6 7 8 9 10 11 12 13 14 15 16 17 18 19 20 21 22 23 24 25 26 27 28 29 30 31 32 33 34 35 36 37 38 39 40 41 42 43 44 45 46 47 48
000
ASUS45 KSLC 062110
RWRUT

UTAH REGIONAL WEATHER ROUNDUP
NATIONAL WEATHER SERVICE SALT LAKE CITY UT
200 PM MST FRI MAR 06 2015

UTZ001>011-023>025-062200-

NORTHERN UTAH

CITY           SKY/WX    TMP DP  RH WIND       PRES   REMARKS
BRIGHAM CITY   SUNNY     50  20  29 CALM      30.43F
HILL AFB       NOT AVBL
LOGAN          SUNNY     51  21  30 NW3       30.41F
OGDEN          SUNNY     52  22  30 N5        30.42F
PROVO AIRPORT  SUNNY     46  25  42 VRB5      30.43
SALT LAKE CITY MOSUNNY   54  25  32 NW8       30.41F
VERNAL         SUNNY     44  20  38 S6        30.40F
WENDOVER       SUNNY     50  25  37 E5        30.42F
HEBER CITY     SUNNY     46  21  36 CALM      30.40F
WEST JORDAN    SUNNY     54  25  32 NW7       30.41F

$$

UTZ012>022-026-027-062200-

SOUTHERN/CENTRAL UTAH

CITY           SKY/WX    TMP DP  RH WIND       PRES   REMARKS
BLANDING       SUNNY     48  22  36 CALM      30.43F
BRYCE CANYON   SUNNY     40  12  32 NE3       30.39F
CEDAR CITY     SUNNY     45  13  27 CALM      30.36F
DELTA          SUNNY     52  20  28 N7        30.40F
HANKSVILLE     SUNNY     52  19  28 NW3       30.41F
MILFORD        SUNNY     53  25  33 NE15      30.38F
MOAB/CYNLANDS  SUNNY     52  17  25 CALM      30.37F
PRICE          SUNNY     46  21  37 VRB3      30.39F
ST GEORGE      CLEAR     57  27  30 CALM      30.32F
KANAB          SUNNY     55  19  24 NE14      30.36F

$$

REGIONAL REPORTS     COLORADO/ARIZONA

CITY           SKY/WX    TMP DP  RH WIND       PRES   REMARKS
CRAIG, CO      SUNNY     44  18  35 CALM      30.38F
GRAND JUNCTION SUNNY     51  15  23 E3        30.37F
RIFLE          SUNNY     49  15  25 CALM      30.37F
MONTROSE       SUNNY     46  19  34 CALM      30.38F
CORTEZ         SUNNY     50  18  28 NW5       30.34F
PAGE, AZ       SUNNY     52  24  33 VRB3      30.36F
GRAND CANYON     N/A     44  18  35 NE20      30.35
KINGMAN        SUNNY     65  25  22 N16       30.21F
FLAGSTAFF      SUNNY     45  10  24 NE16G28   30.31F

$$

REGIONAL REPORTS    NEVADA/IDAHO/WYOMING

CITY           SKY/WX    TMP DP  RH WIND       PRES   REMARKS
LAS VEGAS, NV  SUNNY     69  18  14 CALM      30.21F
ELY            SUNNY     51  23  33 N8        30.39F
ELKO           SUNNY     58  15  18 CALM      30.38F
POCATELLO, ID  SUNNY     53  22  29 W10       30.41F
BURLEY         SUNNY     56  17  21 W8        30.38F
EVANSTON, WY   SUNNY     42  16  34 W12       30.40F
ROCK SPRINGS   SUNNY     41  20  43 W24       30.32F
KEMMERER       SUNNY     43  16  33 W16       30.38F

$$


USA.gov is the U.S. government's official web portal to all federal, state and local government web resources and services.